Regional Weather Roundup
Issued by NWS Northern Indiana

Home | Current Version | Previous Version | Text Only | Print | Product List | Glossary Off
Versions: 1 2 3 4 5 6 7 8 9 10 11 12 13 14 15 16 17 18 19 20 21 22 23 24 25 26 27 28 29 30 31 32 33 34 35 36 37 38 39 40 41 42 43 44 45 46 47 48 49 50

000
ASUS43 KIWX 301610
RWRIWX

KIWX WEATHER ROUNDUP
NATIONAL WEATHER SERVICE NORTHERN INDIANA
1100 AM EST FRI JAN 30 2015

NOTE: "FAIR" INDICATES FEW OR NO CLOUDS BELOW 12,000 FEET WITH NO
SIGNIFICANT WEATHER AND/OR OBSTRUCTIONS TO VISIBILITY.

* THESE STATIONS ARE NOT UNDER NWS QUALITY CONTROL. THEY ALSO MAY NOT
  REPORT WEATHER SUCH AS PRECIPITATION OR FOG.

INZ001>027-301700-
NORTHERN INDIANA

CITY           SKY/WX    TMP DP  RH WIND       PRES   REMARKS
GARY*          PTSUNNY   28  10  47 N12G23    30.52R WCI  18
VALPARAISO     CLOUDY    27  15  61 N10       30.49R WCI  17
MICHIGAN CITY* CLOUDY    27  10  50 N9G16     30.50R WCI  17
LAPORTE*       CLOUDY    27  17  65 N13       30.49R WCI  17
KNOX*          CLOUDY    28   1  31 N16       30.49R WCI  17
SOUTH BEND     CLOUDY    25  15  66 NE7       30.49R WCI  17
ELKHART*       CLOUDY    21   9  58 N7        30.48R WCI  13
GOSHEN         CLOUDY    23  13  65 N15       30.48R WCI  10
MONTICELLO*    CLOUDY    27  20  75 NW10      30.49R WCI  17
LOGANSPORT*    CLOUDY    27  18  69 N10       30.49R WCI  17
ROCHESTER*     PTSUNNY   28  21  74 N12       30.49R WCI  18
WARSAW*        CLOUDY    23  14  68 N8        30.48R WCI  14
ANGOLA*        PTSUNNY   19   7  58 N9        30.44R WCI   9
FORT WAYNE     PTSUNNY   22  10  60 NW13      30.47R WCI  10
HUNTINGTON*    CLOUDY    23  10  58 N10       30.48R WCI  12
PERU/GRISSOM   CLOUDY    26  16  65 N15       30.47R WCI  14
MARION*        CLOUDY    25  16  69 N16G22    30.48R WCI  12

$$
INZ028>050-301700-
CENTRAL INDIANA

CITY           SKY/WX    TMP DP  RH WIND       PRES   REMARKS
LAFAYETTE      PTSUNNY   27  15  61 N10       30.52R WCI  17
KOKOMO*        CLOUDY    27  16  63 N14       30.48R WCI  15
MUNCIE*        CLOUDY    25  16  68 N17       30.47R WCI  12
INDIANAPOLIS   PTSUNNY   26  16  65 N12       30.49R WCI  16

$$
MIZ043>046-050>051-056>058-064>065-071>073-077>080-301700-
SOUTHWEST LOWER MICHIGAN

CITY           SKY/WX    TMP DP  RH WIND       PRES   REMARKS
BATTLE CREEK   CLOUDY    23   8  52 NE10      30.45R WCI  12
BENTON HARBOR  CLOUDY    23  14  68 N6        30.49R WCI  16
COLDWATER*     CLOUDY    21   8  58 N13       30.44S WCI   8
HILLSDALE*     CLOUDY    19   8  60 N12G20    30.41R WCI   7
HOLLAND        CLOUDY    23   9  55 N9        30.49R WCI  13
GRAND RAPIDS   CLOUDY    20   7  57 NW10      30.47R WCI   9
KALAMAZOO      CLOUDY    20   8  60 N13       30.47R WCI   7
STURGIS*       CLOUDY    19  10  68 NW5       30.45R WCI  13
THREE RIVERS*  PTSUNNY   21   8  57 N9        30.47S WCI  11

$$
OHZ001>008-015>018-024>025-301700-
NORTHWEST OHIO

CITY           SKY/WX    TMP DP  RH WIND       PRES   REMARKS
WAUSEON*       CLOUDY    19   9  63 NW12G18   30.45R WCI   7
DEFIANCE       MOSUNNY   24   9  52 N13       30.46R WCI  12
FINDLAY        SUNNY     22   9  57 N16       30.42R WCI   8
TOLEDO EXPRESS MOSUNNY   20   8  60 N13G22    30.44R WCI   7
TOLEDO METCALF FAIR      20   7  57 NW20      30.45R WCI   4
LIMA           LGT SNOW  23  13  65 N16       30.41R WCI  10

$$
AND FOR LAKE MICHIGAN COASTAL AND OPEN LAKE BUOY OBSERVATIONS

STATION/POSITION TEMP    WIND        PRES    VSBY  WAVE
                 AIR SEA DIR/SP/G                  HT/PER
                 (F)     (DEG/KT/KT) (MB)    (MI)  (FT/S)
CALUMET HARBOR    26     310/  5/ 10   N/A
MICHIGAN CITY     25     330/ 15/ 17   N/A
SAINT JOSEPH      24     360/  7/ 16 1032.5F
SAINT JOSEPH CG                      1032.1      6   5

$$
&&



USA.gov is the U.S. government's official web portal to all federal, state and local government web resources and services.